Location: Bohy
(49.9380°N, 13.5753°E)
Time: 00:26:09
(UTC+00:00)

Cosmos 1538 Rocket - Pass Details

Date: 19 May 2025
Orbit: 749 x 788 km, 74.0° (Epoch: 15 June)

Event Time Altitude Azimuth Distance (km) Brightness Sun altitude
Exits shadow 22:50:40 32° 219° (SW) 1,268 4.7 -20.0°
Maximum altitude 22:53:02 71° 296° (WNW) 798 4.1 -20.1°
Drops below altitude 10° 22:58:12 10° 20° (NNE) 2,281 7.5 -20.1°
Sets 23:00:35 0° 23° (NNE) 3,209 8.4 -20.1°
